Regional Weather Roundup
Issued by NWS Upton, NY

Current Version | Previous Version | Graphics & Text | Print | Product List | Glossary Off
Versions: 1 2 3 4 5 6 7 8 9 10 11 12 13 14 15 16 17 18 19 20 21 22 23 24 25 26 27 28 29 30 31 32 33 34 35 36 37 38 39 40 41 42 43 44 45 46 47 48 49 50

000
ASUS41 KOKX 060918
RWROKX

REGIONAL WEATHER ROUNDUP
NATIONAL WEATHER SERVICE NEW YORK NY
500 AM EDT MON JUL 06 2015

NOTE: "FAIR" INDICATES FEW OR NO CLOUDS BELOW 12,000 FEET WITH NO
SIGNIFICANT WEATHER AND/OR OBSTRUCTIONS TO VISIBILITY.

NYZ071-072-176-178-NJZ106-104-061000-
NEW YORK CITY METRO AREA


CITY           SKY/WX    TMP DP  RH WIND       PRES   REMARKS
CENTRAL PARK   MOCLDY    72  65  78 W3        30.17R
LAGUARDIA APRT MOCLDY    73  65  75 CALM      30.14R
KENNEDY INTL   MOCLDY    69  65  86 SW6       30.15S
NEWARK/LIBERTY MOCLDY    71  67  87 SW7       30.14S
BRNX BOT. GARD   N/A     66  64  94 N1        30.13F
TETERBORO      MOCLDY    69  65  86 CALM      30.13S
$$

NYZ177-179-078>081-061000-
LONG ISLAND NEW YORK

CITY           SKY/WX    TMP DP  RH WIND       PRES   REMARKS
FARMINGDALE    MOCLDY    69  66  90 CALM      30.15R
ISLIP          MOCLDY    68  66  93 SW3       30.13S
SHIRLEY        MOCLDY    66  63  90 CALM      30.15S
WESTHAMPTON    FOG       58  58 100 CALM      30.17R VSB 1/2
MONTAUK POINT    N/A     66  64  93 CALM      30.16S
$$

NYZ052-065-067-061000-
HUDSON VALLEY

CITY           SKY/WX    TMP DP  RH WIND       PRES   REMARKS
WHITE PLAINS   PTCLDY    65  64  97 CALM      30.15S FOG
NEWBURGH       NOT AVBL
MONTGOMERY     PTCLDY    60  59  96 CALM      30.15S FOG
POUGHKEEPSIE   MOCLDY    60  58  92 CALM      30.15R
ALBANY         MOCLDY    60  56  86 CALM      30.16R
$$

NJZ001-105-106-008-010-013-015-019>022-104-061000-
NEW JERSEY

CITY           SKY/WX    TMP DP  RH WIND       PRES   REMARKS
NEWARK/LIBERTY MOCLDY    71  67  87 SW7       30.14S
TETERBORO      MOCLDY    69  65  86 CALM      30.13S
CALDWELL       MOCLDY    64  61  90 CALM      30.15S
MORRISTOWN     MOCLDY    63  59  88 CALM      30.15S FOG
SOMERVILLE     MOCLDY    63  60  90 CALM      30.13S
SUSSEX         MOCLDY    60  58  92 CALM      30.16S FOG
ANDOVER          N/A     61  60  97 CALM      30.16S
TRENTON        MOCLDY    70  66  87 CALM      30.14S
MILLVILLE      CLOUDY    69  68  96 CALM      30.14S
ATLANTIC CITY  MOCLDY    68  65  90 CALM      30.14F
WRIGHTSTOWN    MOCLDY    66  66  99 CALM      30.13S
TOMS RIVER     PTCLDY    64  61  88 CALM      30.16S
BELMAR         PTCLDY    68  63  83 CALM      30.15F
$$

PAZ047>061-062-071-061000-
EASTERN PENNSYLVANIA

CITY           SKY/WX    TMP DP  RH WIND       PRES   REMARKS
PHILADELPHIA   MOCLDY    72  68  87 E5        30.14S
ALLENTOWN      MOCLDY    66  63  90 NE5       30.15S
SCRANTON       MOCLDY    63  58  83 E5        30.16S
$$

CTZ002-004>006-009-010-012-RIZ004-006-007-MAZ004-011-015-061000-
SOUTHERN NEW ENGLAND
 IN CT

CITY           SKY/WX    TMP DP  RH WIND       PRES   REMARKS
BRADLEY INTL   PTCLDY    61  59  93 N3        30.14S
HARTFORD       CLEAR     64  62  93 SE7       30.15R
DANBURY        MOCLDY    59  55  87 CALM      30.17S
WTRBRY/OXFORD  PTCLDY    63  55  77 CALM      30.18R
BRIDGEPORT     MOCLDY    67  64  90 CALM      30.15R
MERIDEN        PTCLDY    61  58  90 CALM      30.15S FOG
NEW HAVEN      MOCLDY    62  60  93 CALM      30.15R
CHESTER        FAIR      63  61  94 NW3       30.17R
GROTON         PTCLDY    61  60  97 CALM      30.15R FOG
WILLIMANTIC    PTCLDY    61  59  93 CALM      30.16R

 IN RI

CITY           SKY/WX    TMP DP  RH WIND       PRES   REMARKS
PROVIDENCE     CLEAR     65  62  90 W3          N/A
BLOCK ISLAND   PTCLDY    64  61  88 W6        30.15S
WESTERLY       CLOUDY    60  58  92 CALM      30.15S

 IN MA

CITY           SKY/WX    TMP DP  RH WIND       PRES   REMARKS
BOSTON         PTCLDY    69  61  75 NW7       30.14S
WORCESTER      CLEAR     65  57  75 NW7       30.17S
WESTFIELD      PTCLDY    58  56  93 CALM      30.16R FOG
PROVINCETOWN   CLEAR     63   7  11 W6        30.14S
NANTUCKET      CLEAR     65  63  93 W8        30.14S
$$

ANZ330-335-338-340-345-350-353-355-061000-
COASTAL MARINE OBSERVATIONS


STATION/POSITION TIME  SKY/WX   TEMP    WIND        PRES    VSBY  WAVE
                                AIR SEA DIR/SP/G                  HT/PER
                 (UTC)          (F)     (DEG/KT/KT) (MB)    (MI)  (FT/S)
NY HARB ENTRANCE 0850            71 70  230/  6/  8 1020.7          2/ 7
4S FIRE IS       0803               70                N/A           3/ 7
20S FIRE ISLAND  0850            70 69  210/  6/  6 1020.9          2/ 8
GREAT SOUTH BAY  0800            72 75  250/  6/  8   N/A
23SW MTP         0850            69 69  230/  6/  6 1020.7          3/ 7
HUDSON CANYON    NOT AVBL
KINGS POINT      0800            70 67  180/  3/  5 1020.0
CENTRAL LI SOUND NOT AVBL
EASTERN LI SOUND 0800            65 64  190/  2/  4   N/A
ROBBINS REEF     0800            71     190/  2/  3 1019.6
$$


>>>>>>>>>>>>>>>>>>>>>>>>>>>> KEY <<<<<<<<<<<<<<<<<<<<<<<<<<<
>                                                          <
>     SKY/WX - SKY CONDITION/PRESENT WEATHER               <
>     TMP    - TEMPERATURE IN FAHRENHEIT                   <
>     DP     - DEWPOINT IN FAHRENHEIT                      <
>     RH     - RELATIVE HUMIDITY IN PERCENT                <
>     WIND   - DIRECTION AND SPEED IN MPH                  <
>     PRES   - MEAN SEA LEVEL PRESSURE IN INCHES OF HG     <
>     WCI    - WIND CHILL INDEX                            <
>     VSB    - VISIBILITY IN MILES                         <
>     HX     - HEAT INDEX                                  <
>     TC     - TEMPERATURE IN CELSIUS                      <
>     VRB    - VARIABLE WIND DIRECTION                     <
>                                                          <
>>>>>>>>>>>>>>>>>>>>>>>>>>>> KEY <<<<<<<<<<<<<<<<<<<<<<<<<<<





USA.gov is the U.S. government's official web portal to all federal, state and local government web resources and services.